[[{"header":{"parameterUnit":"m.s-1","parameterCategory":2,"la1":30.2991,"la2":30.254,"lo1":-89.0895,"lo2":-89.0444,"dy":0.0017,"dx":0.0017,"nx":28,"ny":28,"refTime":"2024-05-25T09:00:00:Z","depth":"0","parameterNumber":2,"parameterNumberName":"U-component_of_CURRENTS"},"data":[0,0,0,0,0,0,0,0,0,0,0,0,0,0,0,0,0,0,0,0,0,0,0,0,0,0,0,0,0,0,0,0,0,0,0,0,0,0,0,0,0,0,0,0,0,0,0,0,0,0,0,0,0,0,0,0,0,0,0.3112,0.3112,0,0.3125,0.3125,0.3125,0.3104,0.3104,0.3103,0.3103,0.3094,0.3094,0.3094,0,0,0,0,0,0,0,0,0,0,0,0,0,0.3096,0.3096,0.3112,0.3112,0.3112,0.3125,0.3125,0.3125,0.3104,0.3104,0.3103,0.3103,0.3094,0.3094,0.3094,0,0,0,0,0,0,0,0,0,0,0,0,0,0.3104,0.3096,0.3112,0.3105,0.3105,0.3125,0.3125,0.3125,0.3105,0.3104,0.3103,0.3102,0.3094,0.3094,0.3094,0.3112,0,0,0.3095,0.3096,0,0,0,0,0,0,0,0,0.3103,0.3104,0.3106,0.3106,0.3106,0.3114,0.3116,0.312,0.3105,0.3103,0.3103,0.3102,0.31,0.31,0.3102,0.3112,0.3111,0.3095,0.3096,0.3096,0.3096,0,0,0,0,0,0,0,0.3103,0.3103,0.3115,0.3106,0.3106,0.3111,0.3111,0.3117,0.3104,0.3103,0.3102,0.3107,0.31,0.3101,0.3101,0.3111,0.3095,0.3096,0.3096,0.3096,0.3171,0.3173,0,0,0,0,0,0,0.3105,0.3103,0.3114,0.3115,0.3105,0.3112,0.3112,0.311,0.3104,0.3103,0.3107,0.3106,0.3101,0.3101,0.3101,0.3146,0.3096,0.3096,0.3096,0.317,0.3172,0.3174,0,0,0,0,0,0,0.3104,0.3105,0.3114,0.3112,0.3113,0.3113,0.3112,0.3111,0.3117,0.3108,0.3106,0.3115,0.3101,0.31,0.312,0.3144,0.3096,0.3097,0.3168,0.317,0.3173,0.322,0,0,0,0,0,0,0.3104,0.3105,0.3108,0.3111,0.3113,0.313,0.3113,0.3112,0.3122,0.312,0.3114,0.3112,0.31,0.3119,0.312,0.3144,0.3097,0.3165,0.3169,0.3172,0.3216,0.3224,0.323,0,0,0,0,0,0.3103,0.3109,0.3108,0.311,0.3116,0.3131,0.3133,0.3129,0.3123,0.313,0.3133,0.3112,0.3141,0.3121,0.3121,0.3146,0.3164,0.3168,0.3172,0.3213,0.3222,0.323,0,0,0,0,0,0,0.3101,0.3107,0.3106,0.3113,0.3124,0.3128,0.3136,0.3137,0.3145,0.3143,0.3132,0.3131,0.3159,0.3151,0.313,0.318,0.3151,0.3155,0.3182,0.3191,0.3198,0.3228,0.3097,0,0,0,0,0,0.3104,0.3109,0.3119,0.3125,0.3131,0.3137,0.3144,0.3145,0.3152,0.3154,0.3151,0.3158,0.3177,0.3181,0.3191,0.3216,0.323,0.3235,0.3242,0.3248,0.3276,0.3321,0.3335,0.3187,0.3187,0.3187,0,0,0.3104,0.311,0.3112,0.3126,0.3132,0.3154,0.3138,0.3154,0.3177,0.3153,0.3179,0.3182,0.3191,0.322,0.3232,0.3215,0.3296,0.3253,0.3258,0.3283,0.3327,0.3341,0.3354,0.319,0.3189,0.3189,0,0,0.3112,0.3115,0.3123,0.3139,0.3157,0.3168,0.3176,0.3187,0.3196,0.3218,0.322,0.3249,0.325,0.3281,0.3292,0.3351,0.3334,0.3341,0.3399,0.3442,0.3454,0.3466,0.3491,0.3505,0.3342,0.3342,0.3343,0,0.3113,0.3123,0.313,0.3149,0.3166,0.3178,0.3199,0.322,0.3238,0.3257,0.3229,0.3283,0.3288,0.3358,0.338,0.3369,0.3379,0.3359,0.3451,0.3463,0.3473,0.3497,0.3511,0.3345,0.3345,0.3345,0.3344,0,0.3128,0.3142,0.3152,0.3181,0.3204,0.3223,0.3256,0.3281,0.3287,0.3304,0.3356,0.337,0.3403,0.3412,0.3413,0.3501,0.3478,0.3454,0.3426,0.3491,0.3512,0.3526,0.3349,0.3348,0.3347,0.3347,0,0,0.311,0.3152,0.3155,0.3168,0.322,0.3234,0.3294,0.3343,0.3382,0.3399,0.3452,0.35,0.3505,0.3525,0.3534,0.3582,0.3664,0.3555,0.3555,0.3576,0.3748,0.3712,0.3723,0.3646,0.3649,0.3651,0.3727,0,0.3116,0.3149,0.3176,0.3214,0.3233,0.3276,0.3328,0.338,0.3418,0.3474,0.3518,0.3565,0.3549,0.3569,0.3618,0.3663,0.3705,0.3646,0.3687,0.3689,0.3646,0.374,0.3648,0.3707,0.374,0.3743,0.3744,0,0.3116,0.314,0.3172,0.3222,0.3235,0.3266,0.3347,0.3397,0.3498,0.3529,0.3597,0.3625,0.3727,0.3684,0.3795,0.3752,0.3764,0.3784,0.3786,0.3753,0.3681,0.3652,0.3731,0.3684,0.3765,0.3763,0.3762,0,0.3084,0.3133,0.3153,0.3171,0.3238,0.3265,0.3311,0.3409,0.3465,0.3581,0.3634,0.3723,0.3783,0.3826,0.3874,0.3836,0.398,0.3921,0.3899,0.3895,0.383,0.3816,0.387,0.3996,0.3996,0.3996,0.3995,0,0.3072,0.3084,0.3134,0.3143,0.3176,0.3239,0.33,0.3366,0.3484,0.3561,0.3659,0.3739,0.3823,0.3904,0.3917,0.3969,0.401,0.3947,0.3931,0.3841,0.3828,0.3792,0.3774,0.3998,0.3998,0.3997,0.3997,0,0.3024,0.3058,0.3078,0.3139,0.3157,0.3182,0.3284,0.3333,0.3461,0.3575,0.362,0.378,0.3893,0.3964,0.4053,0.4029,0.3973,0.4068,0.3955,0.3926,0.3832,0.3819,0.3609,0.3524,0.4056,0.4056,0.4056,0,0.3,0.3006,0.3055,0.3066,0.3087,0.3141,0.3179,0.3303,0.3372,0.3589,0.3638,0.3806,0.3908,0.4049,0.4059,0.4096,0.3968,0.4003,0.3922,0.3855,0.3829,0.3567,0.3493,0.3848,0.3846,0.3844,0.3843,0,0.2953,0.2967,0.2982,0.301,0.3035,0.307,0.3141,0.3194,0.3353,0.3461,0.3611,0.3723,0.3907,0.3944,0.4022,0.401,0.3829,0.3972,0.3941,0.3725,0.3407,0.3307,0.3759,0.383,0.3831,0.3832,0.3833,0.3834,0.2907,0.2905,0.2926,0.2939,0.2964,0.2981,0.2989,0.3079,0.3167,0.3307,0.3485,0.3607,0.3805,0.3918,0.3892,0.3832,0.3729,0.3737,0.3744,0.3493,0.336,0.3783,0.3808,0.3809,0.381,0.3811,0.3811,0,0.2843,0.2846,0.2858,0.2861,0.2843,0.2889,0.294,0.2932,0.2978,0.3154,0.3272,0.3467,0.3558,0.3676,0.3739,0.3644,0.3403,0.3557,0.3212,0.3168,0.3613,0.356,0.3485,0.3485,0.3485,0.3485,0.3485,0.3485,0.2811,0.2787,0.2788,0.2731,0.2729,0.2676,0.2679,0.268,0.2769,0.2865,0.2978,0.3127,0.3411,0.3601,0.3578,0.3499,0.3241,0.3053,0.3042,0.3449,0.3465,0.3481,0.3427,0.3326,0.3326,0.2425,0.242,0.2415]},{"header":{"parameterUnit":"m.s-1","parameterCategory":2,"la1":30.2991,"la2":30.254,"lo1":-89.0895,"lo2":-89.0444,"dy":0.0017,"dx":0.0017,"nx":28,"ny":28,"refTime":"2024-05-25T09:00:00:Z","depth":"0","parameterNumber":3,"parameterNumberName":"V-component_of_CURRENTS"},"data":[0,0,0,0,0,0,0,0,0,0,0,0,0,0,0,0,0,0,0,0,0,0,0,0,0,0,0,0,0,0,0,0,0,0,0,0,0,0,0,0,0,0,0,0,0,0,0,0,0,0,0,0,0,0,0,0,0,0,0.0348,0.0347,0,0.0301,0.03,0.03,0.0263,0.0263,0.0262,0.0262,0.0179,0.0177,0.0175,0,0,0,0,0,0,0,0,0,0,0,0,0,0.0348,0.0348,0.0348,0.0347,0.0347,0.0301,0.03,0.03,0.0263,0.0263,0.0262,0.0262,0.018,0.0178,0.0175,0,0,0,0,0,0,0,0,0,0,0,0,0,0.0328,0.0348,0.0348,0.0324,0.0322,0.0301,0.03,0.0299,0.0263,0.0263,0.0262,0.0262,0.0181,0.0178,0.0175,0.0163,0,0,0.0166,0.0164,0,0,0,0,0,0,0,0,0.0329,0.0328,0.0328,0.0326,0.0323,0.0289,0.027,0.0253,0.0263,0.0284,0.0262,0.0262,0.0214,0.0208,0.0198,0.0159,0.0156,0.0165,0.0164,0.0162,0.0162,0,0,0,0,0,0,0,0.0331,0.0329,0.0328,0.0328,0.0325,0.0297,0.0294,0.0266,0.0249,0.0282,0.0279,0.0277,0.0212,0.0201,0.0196,0.0154,0.0166,0.0163,0.0161,0.016,0.0102,0.0103,0,0,0,0,0,0,0.0343,0.0331,0.0329,0.0326,0.0327,0.0297,0.0294,0.0299,0.025,0.0243,0.0277,0.0275,0.0207,0.02,0.0193,0.0196,0.0162,0.016,0.0158,0.0102,0.0103,0.0103,0,0,0,0,0,0,0.0343,0.0344,0.0331,0.0328,0.0325,0.0298,0.0304,0.0298,0.0291,0.0248,0.0239,0.0277,0.0206,0.0197,0.0178,0.0192,0.0158,0.0155,0.0102,0.0102,0.0103,0.0189,0,0,0,0,0,0,0.0344,0.0344,0.035,0.0329,0.0326,0.033,0.0304,0.0298,0.0291,0.0288,0.0244,0.0236,0.0205,0.0183,0.0175,0.0187,0.0153,0.0102,0.0102,0.0103,0.0186,0.0192,0.0198,0,0,0,0,0,0.0344,0.0358,0.0351,0.035,0.0335,0.0331,0.0326,0.0304,0.0292,0.0295,0.0266,0.0238,0.018,0.0181,0.0172,0.0183,0.0101,0.0102,0.0103,0.0183,0.0191,0.0198,0,0,0,0,0,0,0.0358,0.0355,0.0346,0.0358,0.0349,0.0325,0.0325,0.0311,0.0291,0.0285,0.0243,0.0234,0.0219,0.0188,0.019,0.0166,0.0135,0.0134,0.0199,0.0206,0.0212,0.0239,0.0151,0,0,0,0,0,0.0366,0.0376,0.0365,0.0373,0.0372,0.0349,0.0343,0.0331,0.0311,0.0302,0.0273,0.0239,0.0213,0.0201,0.017,0.0162,0.0131,0.016,0.0167,0.0172,0.0187,0.0156,0.0161,0.0105,0.0105,0.0105,0,0,0.0372,0.0372,0.0376,0.0377,0.0365,0.0377,0.0345,0.0343,0.0353,0.0295,0.0296,0.0258,0.0214,0.0204,0.0194,0.0182,0.0169,0.0173,0.0178,0.019,0.0157,0.0163,0.0168,0.0105,0.0105,0.0105,0,0,0.0394,0.0391,0.0409,0.041,0.0404,0.0395,0.04,0.0384,0.0376,0.037,0.0332,0.031,0.0267,0.0247,0.0228,0.0249,0.0199,0.0231,0.0289,0.0259,0.0264,0.0268,0.023,0.0229,0.0239,0.0239,0.0239,0,0.0401,0.0428,0.0412,0.0431,0.0444,0.0411,0.0439,0.0426,0.0406,0.0411,0.0381,0.0332,0.0292,0.0289,0.0294,0.0265,0.0235,0.0269,0.0269,0.0272,0.0275,0.0235,0.0233,0.0243,0.0243,0.0242,0.0242,0,0.044,0.0462,0.0473,0.0493,0.0502,0.0519,0.0509,0.051,0.0493,0.0483,0.0472,0.0415,0.0392,0.0369,0.0337,0.0339,0.0306,0.0279,0.0257,0.0286,0.0241,0.0238,0.0249,0.0248,0.0246,0.0245,0,0,0.0463,0.0496,0.0503,0.0533,0.0542,0.0559,0.0575,0.0592,0.0619,0.0574,0.0601,0.0542,0.0511,0.0488,0.0439,0.0412,0.0395,0.036,0.0357,0.0334,0.0322,0.0318,0.0314,0.0367,0.0367,0.0367,0.0281,0,0.0503,0.0563,0.0568,0.063,0.0665,0.0655,0.0682,0.0689,0.0683,0.0696,0.0635,0.0634,0.0556,0.055,0.0508,0.0431,0.0392,0.042,0.0287,0.0283,0.0286,0.0313,0.0377,0.0308,0.0278,0.0278,0.0277,0,0.0548,0.0588,0.0658,0.0721,0.0736,0.0763,0.0817,0.084,0.0841,0.0836,0.0812,0.0763,0.0721,0.0647,0.0524,0.0545,0.0442,0.0369,0.0364,0.0333,0.0276,0.0273,0.0303,0.0193,0.0272,0.0273,0.0273,0,0.0592,0.0657,0.0723,0.0743,0.0798,0.083,0.0859,0.0883,0.0931,0.0931,0.0961,0.0881,0.086,0.0725,0.0568,0.0547,0.0428,0.0376,0.027,0.0268,0.0284,0.0284,0.0206,0.0284,0.0284,0.0284,0.0285,0,0.0646,0.0699,0.0749,0.0787,0.0877,0.0891,0.0985,0.0998,0.1043,0.1125,0.1041,0.1076,0.0881,0.0787,0.0615,0.0447,0.0458,0.0292,0.0254,0.0314,0.0317,0.0189,0.011,0.0281,0.0282,0.0282,0.0283,0,0.0687,0.0717,0.08,0.087,0.0902,0.0967,0.1074,0.1141,0.117,0.1272,0.1282,0.1226,0.1114,0.0907,0.0697,0.0531,0.0296,0.0285,0.0365,0.0339,0.0138,0.0062,-0.0057,-0.0117,0.0158,0.0157,0.0157,0,0.0714,0.076,0.0865,0.0925,0.0961,0.106,0.1138,0.1199,0.1286,0.1377,0.1435,0.1362,0.1345,0.1031,0.0731,0.0441,0.0295,0.0288,0.0257,0.0151,0.0037,-0.0007,-0.0051,0.03,0.0301,0.0302,0.0302,0,0.0767,0.0801,0.0871,0.0997,0.1088,0.121,0.1324,0.1418,0.1515,0.1614,0.1718,0.1714,0.1434,0.1197,0.0794,0.0571,0.0242,0.0292,0.0167,0.0139,0.0102,0.0021,0.0317,0.0308,0.0308,0.0307,0.0307,0.0307,0.0806,0.0864,0.0957,0.1078,0.1191,0.1347,0.1472,0.1612,0.1787,0.1962,0.1937,0.2011,0.166,0.1134,0.0784,0.0286,0.0263,0.0163,0.0075,0.0038,0.0002,0.0311,0.027,0.0269,0.0268,0.0267,0.0267,0,0.0858,0.0925,0.1034,0.1186,0.1319,0.1377,0.1593,0.1739,0.1972,0.2144,0.2255,0.2225,0.1747,0.1233,0.0549,0.017,0.0017,-0.0024,-0.0066,-0.0109,0.0163,0.0193,0.0153,0.0153,0.0153,0.0154,0.0154,0.0154,0.0886,0.0994,0.1052,0.1268,0.1382,0.1592,0.1733,0.1958,0.2148,0.2431,0.2578,0.2652,0.2405,0.1085,0.0234,-0.0004,-0.026,-0.0295,-0.0448,-0.0253,-0.0242,-0.0231,-0.0221,-0.0346,-0.0347,-0.0637,-0.064,-0.0643]}],[{"header":{"parameterUnit":"m.s-1","parameterCategory":2,"la1":30.2991,"la2":30.254,"lo1":-89.0895,"lo2":-89.0444,"dy":0.0017,"dx":0.0017,"nx":28,"ny":28,"refTime":"2024-05-25T09:00:00:Z","depth":"2","parameterNumber":2,"parameterNumberName":"U-component_of_CURRENTS"},"data":[0,0,0,0,0,0,0,0,0,0,0,0,0,0,0,0,0,0,0,0,0,0,0,0,0,0,0,0,0,0,0,0,0,0,0,0,0,0,0,0,0,0,0,0,0,0,0,0,0,0,0,0,0,0,0,0,0,0,0.3032,0.3032,0,0.3046,0.3046,0.3046,0.303,0.3029,0.3029,0.3029,0.3024,0.3024,0.3024,0,0,0,0,0,0,0,0,0,0,0,0,0,0.3016,0.3016,0.3032,0.3032,0.3032,0.3046,0.3046,0.3046,0.303,0.3029,0.3029,0.3028,0.3024,0.3024,0.3024,0,0,0,0,0,0,0,0,0,0,0,0,0,0.3024,0.3016,0.3031,0.3028,0.3028,0.3046,0.3046,0.3046,0.303,0.3029,0.3029,0.3028,0.3024,0.3024,0.3024,0.3039,0,0,0.3026,0.3026,0,0,0,0,0,0,0,0,0.3023,0.3024,0.3028,0.3028,0.3028,0.3037,0.3039,0.3043,0.303,0.3027,0.3029,0.3028,0.3028,0.3028,0.303,0.3039,0.3038,0.3026,0.3026,0.3026,0.3026,0,0,0,0,0,0,0,0.3023,0.3024,0.3035,0.3028,0.3028,0.3034,0.3034,0.3039,0.3029,0.3027,0.3026,0.3032,0.3028,0.3029,0.3029,0.3038,0.3026,0.3026,0.3026,0.3026,0.31,0.3102,0,0,0,0,0,0,0.3025,0.3023,0.3035,0.3036,0.3026,0.3035,0.3035,0.3033,0.3029,0.3029,0.3032,0.3031,0.3029,0.3029,0.3029,0.3075,0.3026,0.3026,0.3026,0.3098,0.31,0.3102,0,0,0,0,0,0,0.3024,0.3025,0.3034,0.3032,0.3033,0.3036,0.3034,0.3034,0.3042,0.3034,0.3032,0.3042,0.3028,0.3029,0.3048,0.3074,0.3026,0.3027,0.3096,0.3099,0.3101,0.3149,0,0,0,0,0,0,0.3024,0.3025,0.3029,0.3032,0.3034,0.305,0.3035,0.3035,0.3047,0.3045,0.3042,0.304,0.3028,0.3048,0.3049,0.3073,0.3027,0.3094,0.3097,0.31,0.3145,0.3153,0.3159,0,0,0,0,0,0.3023,0.3028,0.3028,0.303,0.3037,0.3051,0.3053,0.3051,0.3048,0.3055,0.3059,0.304,0.3069,0.305,0.305,0.3075,0.3092,0.3096,0.31,0.3142,0.3151,0.3159,0,0,0,0,0,0,0.3022,0.3028,0.3028,0.3034,0.3046,0.3049,0.3058,0.306,0.3069,0.3069,0.3059,0.3058,0.3087,0.3079,0.3058,0.3109,0.308,0.3084,0.3111,0.312,0.3127,0.3156,0.3027,0,0,0,0,0,0.3025,0.3031,0.3039,0.3046,0.3052,0.3059,0.3066,0.3068,0.3076,0.3079,0.3077,0.3085,0.3104,0.3109,0.3118,0.3143,0.3156,0.3163,0.317,0.3176,0.3202,0.3246,0.3259,0.3115,0.3115,0.3115,0,0,0.3026,0.3032,0.3034,0.3047,0.3054,0.3074,0.3061,0.3077,0.31,0.3078,0.3105,0.3109,0.3117,0.3147,0.3159,0.3142,0.3222,0.3181,0.3185,0.3209,0.3251,0.3265,0.3278,0.3118,0.3117,0.3117,0,0,0.3033,0.3037,0.3046,0.3061,0.3079,0.3089,0.3098,0.3109,0.3119,0.3142,0.3145,0.3175,0.3177,0.3207,0.3218,0.3275,0.3259,0.3267,0.3324,0.3365,0.3378,0.3389,0.3413,0.3426,0.3268,0.3269,0.3269,0,0.3036,0.3044,0.3052,0.307,0.3087,0.31,0.312,0.3141,0.3159,0.3179,0.3154,0.3209,0.3214,0.3281,0.3304,0.3293,0.3303,0.3285,0.3375,0.3386,0.3396,0.3418,0.3432,0.3271,0.3271,0.3271,0.327,0,0.3049,0.3063,0.3072,0.31,0.3123,0.3141,0.3173,0.32,0.3207,0.3225,0.3278,0.3292,0.3326,0.3335,0.3336,0.3422,0.34,0.3377,0.335,0.3414,0.3433,0.3446,0.3275,0.3274,0.3273,0.3273,0,0,0.3033,0.3072,0.3076,0.3088,0.3138,0.3151,0.321,0.3257,0.3296,0.3317,0.3369,0.3417,0.3426,0.3444,0.3455,0.3501,0.3582,0.3476,0.3477,0.3497,0.3663,0.3624,0.3634,0.3565,0.3568,0.357,0.3642,0,0.3039,0.3069,0.3095,0.313,0.3148,0.3191,0.3241,0.3293,0.3331,0.3387,0.3431,0.3479,0.3466,0.3489,0.3537,0.358,0.3621,0.3564,0.3604,0.3605,0.356,0.3651,0.3332,0.3368,0.3655,0.3657,0.3659,0,0.3038,0.306,0.3091,0.3138,0.315,0.3181,0.326,0.3309,0.3409,0.3441,0.351,0.3538,0.3639,0.36,0.3708,0.3668,0.368,0.3698,0.37,0.3664,0.3593,0.3355,0.3381,0.3681,0.3679,0.3677,0.3676,0,0.3007,0.3053,0.3073,0.309,0.3153,0.3181,0.3227,0.3322,0.3378,0.3492,0.3545,0.3634,0.3695,0.3737,0.3785,0.375,0.3887,0.3831,0.3805,0.38,0.3542,0.3511,0.3903,0.3903,0.3903,0.3903,0.3902,0,0.2995,0.3007,0.3055,0.3064,0.3097,0.3158,0.3219,0.3284,0.34,0.3474,0.3572,0.3649,0.3734,0.3813,0.3826,0.3874,0.3916,0.385,0.3834,0.3548,0.3519,0.3796,0.3782,0.3905,0.3905,0.3904,0.3904,0,0.2949,0.2982,0.3001,0.306,0.3079,0.3105,0.3206,0.3254,0.338,0.349,0.3535,0.3691,0.3799,0.387,0.3956,0.3932,0.3972,0.3966,0.3627,0.3572,0.384,0.3828,0.3948,0.3948,0.3947,0.3947,0.3947,0,0.2926,0.2932,0.2981,0.2991,0.3013,0.3067,0.3105,0.3227,0.3292,0.3503,0.3548,0.3713,0.3804,0.3939,0.3912,0.3937,0.3994,0.3657,0.3547,0.3882,0.3854,0.3842,0.3832,0.3205,0.3199,0.3194,0.3189,0,0.288,0.2896,0.291,0.2938,0.2964,0.2996,0.3067,0.3116,0.327,0.3372,0.3514,0.3617,0.3759,0.366,0.3718,0.3677,0.3631,0.3557,0.3996,0.3262,0.3193,0.3162,0.3173,0.3144,0.3148,0.3152,0.3154,0.3156,0.2837,0.2834,0.2856,0.2869,0.2894,0.2907,0.2913,0.2989,0.3069,0.3171,0.3348,0.3384,0.3441,0.3376,0.328,0.3193,0.345,0.3274,0.3284,0.3301,0.3222,0.3158,0.3086,0.309,0.3094,0.3097,0.31,0,0.2769,0.2778,0.2789,0.279,0.2766,0.282,0.2863,0.2827,0.2851,0.2954,0.3034,0.2825,0.2793,0.284,0.265,0.2674,0.258,0.2551,0.239,0.244,0.2485,0.2357,0.1995,0.1991,0.1987,0.1984,0,0,0.2736,0.2709,0.2709,0.2648,0.2653,0.2593,0.2592,0.2538,0.2556,0.2503,0.2483,0.2674,0.2788,0.2353,0.2306,0.2118,0.2248,0.2025,0.2923,0.2785,0.2824,0.2928,0.2795,0,0,0,0,0]},{"header":{"parameterUnit":"m.s-1","parameterCategory":2,"la1":30.2991,"la2":30.254,"lo1":-89.0895,"lo2":-89.0444,"dy":0.0017,"dx":0.0017,"nx":28,"ny":28,"refTime":"2024-05-25T09:00:00:Z","depth":"2","parameterNumber":3,"parameterNumberName":"V-component_of_CURRENTS"},"data":[0,0,0,0,0,0,0,0,0,0,0,0,0,0,0,0,0,0,0,0,0,0,0,0,0,0,0,0,0,0,0,0,0,0,0,0,0,0,0,0,0,0,0,0,0,0,0,0,0,0,0,0,0,0,0,0,0,0,0.0272,0.0272,0,0.0227,0.0226,0.0225,0.019,0.019,0.019,0.019,0.011,0.0108,0.0106,0,0,0,0,0,0,0,0,0,0,0,0,0,0.0272,0.0273,0.0272,0.0272,0.0271,0.0227,0.0226,0.0225,0.019,0.019,0.019,0.019,0.011,0.0108,0.0106,0,0,0,0,0,0,0,0,0,0,0,0,0,0.0253,0.0273,0.0272,0.025,0.0247,0.0227,0.0226,0.0225,0.019,0.019,0.019,0.019,0.0111,0.0108,0.0105,0.0093,0,0,0.0096,0.0095,0,0,0,0,0,0,0,0,0.0254,0.0253,0.0253,0.0251,0.0248,0.0215,0.0197,0.018,0.019,0.021,0.019,0.0189,0.0143,0.0137,0.0128,0.0089,0.0086,0.0096,0.0094,0.0093,0.0092,0,0,0,0,0,0,0,0.0255,0.0254,0.0252,0.0253,0.025,0.0223,0.022,0.0193,0.0177,0.0208,0.0206,0.0204,0.0141,0.0131,0.0126,0.0084,0.0096,0.0094,0.0092,0.0091,0.0036,0.0036,0,0,0,0,0,0,0.0268,0.0256,0.0254,0.0251,0.0252,0.0223,0.022,0.0225,0.0178,0.0171,0.0204,0.0202,0.0136,0.0129,0.0123,0.0127,0.0093,0.009,0.0089,0.0036,0.0036,0.0037,0,0,0,0,0,0,0.0268,0.0268,0.0256,0.0253,0.025,0.0224,0.0229,0.0224,0.0219,0.0175,0.0167,0.0205,0.0135,0.0127,0.0109,0.0123,0.0089,0.0086,0.0035,0.0036,0.0036,0.0122,0,0,0,0,0,0,0.0268,0.0269,0.0275,0.0254,0.025,0.0255,0.023,0.0224,0.0218,0.0215,0.0173,0.0165,0.0134,0.0114,0.0106,0.0118,0.0084,0.0035,0.0036,0.0036,0.0119,0.0125,0.0131,0,0,0,0,0,0.0268,0.0282,0.0275,0.0275,0.026,0.0256,0.0252,0.023,0.0219,0.0223,0.0194,0.0167,0.0112,0.0112,0.0103,0.0114,0.0035,0.0035,0.0036,0.0116,0.0124,0.0131,0,0,0,0,0,0,0.0283,0.028,0.0271,0.0283,0.0275,0.0251,0.0251,0.0238,0.0219,0.0214,0.0173,0.0163,0.015,0.012,0.0121,0.0099,0.0068,0.0067,0.0131,0.0138,0.0144,0.017,0.0082,0,0,0,0,0,0.0291,0.0301,0.029,0.0298,0.0297,0.0275,0.027,0.0258,0.0239,0.023,0.0203,0.017,0.0144,0.0133,0.0103,0.0095,0.0063,0.0094,0.0101,0.0106,0.012,0.0088,0.0093,0.0039,0.0039,0.0039,0,0,0.0297,0.0297,0.0301,0.0302,0.0291,0.0302,0.0271,0.027,0.028,0.0224,0.0226,0.0189,0.0146,0.0136,0.0127,0.0115,0.0102,0.0107,0.0112,0.0123,0.009,0.0095,0.01,0.0039,0.0039,0.0039,0,0,0.0319,0.0317,0.0334,0.0335,0.033,0.0321,0.0326,0.0311,0.0304,0.0299,0.0261,0.0241,0.02,0.018,0.0162,0.0183,0.0133,0.0166,0.0223,0.0192,0.0197,0.0201,0.0162,0.0161,0.0173,0.0173,0.0174,0,0.0327,0.0352,0.0337,0.0356,0.0369,0.0337,0.0365,0.0352,0.0333,0.0338,0.031,0.0263,0.0224,0.0221,0.0227,0.0199,0.0168,0.0202,0.0202,0.0205,0.0208,0.0167,0.0165,0.0178,0.0177,0.0177,0.0176,0,0.0364,0.0387,0.0398,0.0418,0.0426,0.0443,0.0434,0.0435,0.042,0.041,0.04,0.0345,0.0323,0.0302,0.027,0.0272,0.0239,0.0212,0.019,0.0219,0.0173,0.017,0.0184,0.0182,0.0181,0.018,0,0,0.0388,0.042,0.0427,0.0456,0.0466,0.0482,0.0499,0.0516,0.0542,0.05,0.0526,0.047,0.044,0.0417,0.037,0.0343,0.0325,0.0292,0.0289,0.0264,0.025,0.0245,0.0241,0.0297,0.0297,0.0298,0.021,0,0.0428,0.0486,0.0491,0.0552,0.0586,0.0577,0.0604,0.0611,0.0605,0.0618,0.0559,0.0558,0.0484,0.0478,0.0437,0.036,0.0322,0.0351,0.0216,0.0212,0.0214,0.0239,0.0243,0.0168,0.0206,0.0206,0.0205,0,0.0473,0.051,0.058,0.064,0.0655,0.0683,0.0735,0.0758,0.0758,0.0754,0.0731,0.0683,0.0642,0.0571,0.0449,0.0471,0.037,0.0298,0.0292,0.026,0.0203,0.0144,0.016,0.0199,0.02,0.02,0.0201,0,0.0516,0.0579,0.0643,0.0663,0.0717,0.0749,0.0777,0.0801,0.0847,0.0847,0.0875,0.0796,0.0776,0.0643,0.049,0.047,0.0349,0.0299,0.0194,0.0191,0.0156,0.0151,0.0208,0.0208,0.0208,0.0208,0.0209,0,0.0568,0.0621,0.067,0.0707,0.0796,0.0809,0.0901,0.0914,0.0956,0.1035,0.0954,0.0985,0.0795,0.0701,0.0534,0.0367,0.0378,0.0215,0.0177,0.0185,0.0184,0.018,0.0178,0.0205,0.0206,0.0206,0.0207,0,0.0611,0.0639,0.072,0.0789,0.0821,0.0885,0.0989,0.1054,0.1082,0.1179,0.1189,0.1131,0.1018,0.0815,0.0608,0.0446,0.0272,0.0203,0.0224,0.0191,0.0116,0.0119,0.0076,0.0075,0.0075,0.0074,0.0074,0,0.0637,0.0682,0.0785,0.0844,0.088,0.0978,0.1054,0.1113,0.1196,0.128,0.1334,0.1259,0.1235,0.0924,0.0621,0.0334,0.0286,0.014,0.0104,0.014,0.0106,0.0111,0.0114,0.0076,0.0076,0.0075,0.0075,0,0.069,0.0724,0.0792,0.0916,0.1006,0.1124,0.1235,0.1324,0.1416,0.1508,0.1602,0.1591,0.1304,0.1021,0.0621,0.0411,0.0187,0.0126,0.016,0.0123,0.0136,0.0105,0.0109,0.0072,0.0073,0.0073,0.0073,0.0073,0.073,0.0786,0.0877,0.0997,0.1108,0.1258,0.1378,0.1502,0.1665,0.1798,0.1779,0.1757,0.1424,0.0915,0.0558,0.0169,0.0199,0.0043,0.0045,0.0047,0.0077,0.0091,0.0022,0.0022,0.0022,0.0022,0.0022,0,0.0779,0.0847,0.0954,0.1103,0.1228,0.129,0.1496,0.1609,0.1814,0.1901,0.1973,0.1653,0.1336,0.0942,0.0381,0.0063,0.0014,-0.0063,-0.005,-0.0044,-0.0039,-0.0014,-0.0094,-0.0095,-0.0096,-0.0097,0,0,0.0806,0.091,0.0967,0.1175,0.129,0.1488,0.1622,0.178,0.1885,0.1976,0.1958,0.1888,0.1446,0.1011,0.0566,0.0241,0.0164,0.0158,0.0288,0.0362,0.037,0.006,0.0111,0,0,0,0,0]}],[{"header":{"parameterUnit":"m.s-1","parameterCategory":2,"la1":30.2991,"la2":30.254,"lo1":-89.0895,"lo2":-89.0444,"dy":0.0017,"dx":0.0017,"nx":28,"ny":28,"refTime":"2024-05-25T09:00:00:Z","depth":"4","parameterNumber":2,"parameterNumberName":"U-component_of_CURRENTS"},"data":[0,0,0,0,0,0,0,0,0,0,0,0,0,0,0,0,0,0,0,0,0,0,0,0,0,0,0,0,0,0,0,0,0,0,0,0,0,0,0,0,0,0,0,0,0,0,0,0,0,0,0,0,0,0,0,0,0,0,0.1933,0.1934,0,0.1997,0.1997,0.1998,0.2055,0.2056,0.2057,0.2058,0.2141,0.2143,0.2144,0,0,0,0,0,0,0,0,0,0,0,0,0,0.1868,0.1868,0.1933,0.1934,0.1935,0.1997,0.1997,0.1998,0.2055,0.2056,0.2057,0.2058,0.2141,0.2143,0.2144,0,0,0,0,0,0,0,0,0,0,0,0,0,0.1908,0.1869,0.1933,0.1972,0.1976,0.1996,0.1997,0.1998,0.2055,0.2056,0.2057,0.2059,0.214,0.2142,0.2145,0.2133,0,0,0.2151,0.2152,0,0,0,0,0,0,0,0,0.1906,0.191,0.1965,0.1969,0.1974,0.2021,0.2005,0.2045,0.2054,0.2023,0.2058,0.2059,0.2103,0.2108,0.2115,0.2137,0.214,0.2151,0.2153,0.2154,0.2154,0,0,0,0,0,0,0,0.1903,0.1908,0.1956,0.1966,0.1972,0.1989,0.1996,0.2013,0.2054,0.2026,0.2031,0.204,0.2106,0.2113,0.2117,0.2141,0.2151,0.2153,0.2155,0.2155,0.2287,0.2289,0,0,0,0,0,0,0.1897,0.1905,0.1954,0.1958,0.1945,0.1989,0.1997,0.2003,0.2054,0.2063,0.2039,0.2043,0.2108,0.2115,0.212,0.2224,0.2154,0.2156,0.2157,0.2284,0.2287,0.2289,0,0,0,0,0,0,0.1895,0.1901,0.1952,0.1935,0.1943,0.1989,0.1996,0.2004,0.2054,0.2064,0.2074,0.2087,0.2109,0.2117,0.2177,0.2223,0.2157,0.2159,0.2282,0.2285,0.2288,0.2356,0,0,0,0,0,0,0.1893,0.1899,0.1924,0.1934,0.1944,0.1987,0.1995,0.2004,0.2056,0.2063,0.2107,0.2113,0.2111,0.2174,0.2179,0.2225,0.216,0.2279,0.2283,0.2287,0.2351,0.2362,0.237,0,0,0,0,0,0.189,0.1908,0.1924,0.1931,0.1968,0.1988,0.1996,0.2031,0.2058,0.2081,0.2121,0.2114,0.2204,0.2177,0.2183,0.223,0.2277,0.2282,0.2287,0.2347,0.236,0.237,0,0,0,0,0,0,0.1894,0.1916,0.1934,0.1959,0.1986,0.2,0.2032,0.2055,0.2104,0.2126,0.2137,0.2146,0.2216,0.2215,0.2185,0.2282,0.2241,0.2247,0.2285,0.2297,0.2306,0.232,0.2162,0,0,0,0,0,0.1905,0.1928,0.1947,0.1974,0.199,0.202,0.2044,0.2068,0.2101,0.2126,0.2157,0.2196,0.2232,0.226,0.2284,0.2334,0.2337,0.2371,0.238,0.2388,0.2405,0.2451,0.2466,0.2305,0.2305,0.2305,0,0,0.1916,0.1932,0.1948,0.1978,0.2004,0.2032,0.2039,0.2084,0.2124,0.2126,0.2205,0.2231,0.2253,0.2312,0.2343,0.2323,0.2435,0.2395,0.2401,0.2414,0.2458,0.2474,0.2487,0.2309,0.2308,0.2308,0,0,0.1931,0.1964,0.1983,0.2009,0.2053,0.207,0.2094,0.2133,0.2173,0.2233,0.2256,0.2317,0.2361,0.2395,0.2414,0.2493,0.2482,0.2504,0.2567,0.2611,0.2625,0.2637,0.2651,0.2663,0.2511,0.2511,0.2511,0,0.195,0.197,0.1995,0.202,0.205,0.2093,0.2124,0.2166,0.2226,0.2265,0.227,0.2377,0.2401,0.2482,0.2518,0.2516,0.2528,0.2518,0.2623,0.2635,0.2646,0.2658,0.2671,0.2515,0.2514,0.2514,0.2513,0,0.1963,0.2,0.2017,0.2064,0.21,0.2136,0.2187,0.2246,0.2298,0.2334,0.2433,0.2472,0.2537,0.2559,0.2566,0.2667,0.2645,0.2626,0.2591,0.2666,0.2674,0.2686,0.252,0.2519,0.2518,0.2517,0,0,0.1947,0.2013,0.2025,0.2054,0.2128,0.215,0.2236,0.2307,0.2371,0.2442,0.2523,0.2606,0.2642,0.2668,0.2695,0.2746,0.2835,0.2733,0.2733,0.2741,0.2923,0.2735,0.273,0.2838,0.284,0.2843,0.2892,0,0.1955,0.2001,0.2039,0.2102,0.213,0.2203,0.227,0.235,0.2425,0.2514,0.2588,0.2672,0.2678,0.273,0.2785,0.2833,0.2874,0.2823,0.2854,0.2855,0.2674,0.274,0.2852,0.2901,0.2904,0.2906,0.2907,0,0.1946,0.1982,0.2038,0.2118,0.2139,0.2195,0.2314,0.2382,0.2515,0.2578,0.2683,0.2736,0.2857,0.2836,0.2954,0.2924,0.2938,0.2955,0.2957,0.2768,0.269,0.2814,0.2929,0.2927,0.2926,0.2924,0.2923,0,0.1898,0.1977,0.2023,0.2052,0.2152,0.2212,0.2284,0.2412,0.2486,0.2643,0.2716,0.2833,0.2923,0.2971,0.3027,0.3004,0.3126,0.3083,0.2918,0.2904,0.3027,0.3014,0.3149,0.3149,0.3149,0.3149,0.3148,0,0.1864,0.1905,0.2013,0.2037,0.211,0.2198,0.23,0.2393,0.2539,0.2625,0.2759,0.2837,0.2968,0.3046,0.3061,0.3031,0.3151,0.2942,0.2912,0.3053,0.3042,0.3035,0.3021,0.315,0.315,0.315,0.3149,0,0.1792,0.1863,0.1922,0.2042,0.2088,0.2148,0.2307,0.2372,0.2532,0.2657,0.2717,0.2886,0.2977,0.3063,0.3149,0.3059,0.3054,0.3006,0.3159,0.3135,0.2789,0.2778,0.2811,0.2805,0.28,0.2795,0.2792,0,0.1753,0.1778,0.1913,0.1956,0.2019,0.2126,0.2193,0.2357,0.2428,0.2653,0.2691,0.2854,0.2939,0.2908,0.3007,0.3005,0.2969,0.2931,0.2852,0.279,0.2759,0.2756,0.2753,0.2784,0.2782,0.2781,0.278,0,0.1676,0.1744,0.1794,0.1887,0.1966,0.2035,0.2149,0.2184,0.2366,0.2536,0.2599,0.2645,0.2739,0.2786,0.2814,0.2806,0.2937,0.2877,0.2886,0.2811,0.2757,0.2731,0.2734,0.2762,0.2765,0.2766,0.2767,0,0.1627,0.1644,0.1728,0.1791,0.1884,0.1911,0.1984,0.2055,0.2142,0.2377,0.2391,0.2558,0.2713,0.2683,0.2709,0.2692,0.2636,0.2526,0.2553,0.2574,0.2473,0.2369,0.2238,0,0,0,0,0,0.1564,0.1569,0.1623,0.1671,0.1755,0.1806,0.1934,0.2009,0.2183,0.2164,0.227,0.234,0.2383,0.2467,0.2399,0.26,0.2648,0.2507,0.2535,0.2663,0.2684,0.2587,0,0,0,0,0,0,0.1519,0.1566,0.1578,0.156,0.1569,0.1636,0.1708,0.1823,0.1818,0.2008,0.2045,0.2186,0.2267,0.2398,0.2352,0.2375,0.2339,0.2611,0.2604,0.2652,0.267,0.2687,0.2594,0,0,0,0,0]},{"header":{"parameterUnit":"m.s-1","parameterCategory":2,"la1":30.2991,"la2":30.254,"lo1":-89.0895,"lo2":-89.0444,"dy":0.0017,"dx":0.0017,"nx":28,"ny":28,"refTime":"2024-05-25T09:00:00:Z","depth":"4","parameterNumber":3,"parameterNumberName":"V-component_of_CURRENTS"},"data":[0,0,0,0,0,0,0,0,0,0,0,0,0,0,0,0,0,0,0,0,0,0,0,0,0,0,0,0,0,0,0,0,0,0,0,0,0,0,0,0,0,0,0,0,0,0,0,0,0,0,0,0,0,0,0,0,0,0,0.0097,0.0097,0,0.0071,0.0071,0.007,0.0046,0.0045,0.0045,0.0045,-0.0008,-0.0009,-0.0011,0,0,0,0,0,0,0,0,0,0,0,0,0,0.009,0.009,0.0097,0.0097,0.0096,0.0071,0.0071,0.007,0.0046,0.0045,0.0045,0.0045,-0.0008,-0.0009,-0.0011,0,0,0,0,0,0,0,0,0,0,0,0,0,0.008,0.009,0.0097,0.0082,0.008,0.0071,0.0071,0.007,0.0046,0.0045,0.0045,0.0045,-0.0007,-0.0009,-0.0011,-0.0016,0,0,-0.0017,-0.0017,0,0,0,0,0,0,0,0,0.0081,0.008,0.0084,0.0083,0.0081,0.0062,0.0049,0.004,0.0046,0.0058,0.0045,0.0045,0.0014,0.001,0.0005,-0.0018,-0.0021,-0.0017,-0.0018,-0.0019,-0.0019,0,0,0,0,0,0,0,0.0082,0.0081,0.0086,0.0084,0.0082,0.0065,0.0063,0.0047,0.0036,0.0057,0.0055,0.0054,0.0013,0.0007,0.0003,-0.0021,-0.0017,-0.0018,-0.0019,-0.002,-0.0042,-0.0041,0,0,0,0,0,0,0.0089,0.0082,0.0086,0.0085,0.0082,0.0065,0.0063,0.0068,0.0037,0.0033,0.0054,0.0053,0.001,0.0005,0.0001,0.0015,-0.0019,-0.002,-0.0021,-0.0042,-0.0042,-0.0041,0,0,0,0,0,0,0.0089,0.009,0.0087,0.0083,0.0082,0.0066,0.0071,0.0067,0.0067,0.0036,0.0031,0.0058,0.0009,0.0004,-0.0003,0.0012,-0.0021,-0.0023,-0.0043,-0.0042,-0.0041,0.0029,0,0,0,0,0,0,0.0089,0.0091,0.0096,0.0084,0.0082,0.0092,0.0071,0.0067,0.0067,0.0065,0.0037,0.0031,0.0009,0.0,-0.0004,0.0009,-0.0024,-0.0044,-0.0043,-0.0042,0.0026,0.0032,0.0037,0,0,0,0,0,0.0089,0.0101,0.0097,0.0097,0.0091,0.0093,0.0091,0.0077,0.0067,0.0073,0.0055,0.0033,0.0003,-0.0,-0.0006,0.0007,-0.0044,-0.0043,-0.0042,0.0023,0.0031,0.0037,0,0,0,0,0,0,0.0099,0.01,0.0095,0.0106,0.0104,0.0089,0.0092,0.0084,0.0074,0.007,0.0041,0.0035,0.0032,0.001,0.0007,0.0002,-0.0025,-0.0025,0.0026,0.0033,0.0039,0.0057,-0.0026,0,0,0,0,0,0.0106,0.0115,0.0111,0.0119,0.012,0.0108,0.0106,0.0099,0.0088,0.0084,0.0067,0.0046,0.0032,0.0026,0.0007,0.0008,-0.0021,0.0011,0.0017,0.0022,0.0033,0.0002,0.0006,-0.0037,-0.0037,-0.0037,0,0,0.0111,0.0113,0.0117,0.0122,0.0117,0.013,0.0106,0.0109,0.0122,0.0079,0.0089,0.0064,0.0035,0.0036,0.0033,0.0021,0.0018,0.0024,0.0028,0.0036,0.0004,0.0008,0.0012,-0.0037,-0.0037,-0.0037,0,0,0.013,0.013,0.0145,0.015,0.0151,0.0147,0.0152,0.0146,0.0144,0.0149,0.0121,0.0111,0.0089,0.0077,0.0066,0.0092,0.0046,0.0081,0.0129,0.0099,0.0102,0.0105,0.0069,0.0068,0.0087,0.0087,0.0087,0,0.0136,0.0158,0.0149,0.0167,0.018,0.016,0.0185,0.0181,0.0174,0.0181,0.0161,0.0137,0.0112,0.0116,0.0125,0.0106,0.0077,0.0107,0.0107,0.0109,0.011,0.0073,0.0071,0.009,0.009,0.009,0.0089,0,0.0167,0.0188,0.0198,0.0218,0.0229,0.0246,0.0246,0.0253,0.0247,0.0244,0.0245,0.0209,0.0198,0.0185,0.0164,0.0168,0.0138,0.0115,0.0093,0.0119,0.0078,0.0074,0.0095,0.0094,0.0093,0.0092,0,0,0.018,0.0214,0.022,0.0246,0.0262,0.0277,0.03,0.0321,0.0345,0.0323,0.0346,0.0317,0.0295,0.0282,0.0248,0.0224,0.0207,0.0182,0.0178,0.0152,0.0134,0.0117,0.0111,0.018,0.018,0.018,0.0099,0,0.0211,0.026,0.0271,0.0324,0.0353,0.0355,0.0384,0.0398,0.04,0.0414,0.0376,0.0382,0.0333,0.0331,0.0298,0.0233,0.0202,0.0231,0.0107,0.0104,0.009,0.0108,0.018,0.0096,0.0095,0.0095,0.0094,0,0.0243,0.0275,0.0335,0.0391,0.0405,0.0435,0.0484,0.051,0.052,0.0521,0.0511,0.0477,0.045,0.0397,0.0298,0.0317,0.0236,0.0175,0.017,0.013,0.0081,0.0063,0.0087,0.0088,0.0088,0.0089,0.0089,0,0.0265,0.0324,0.0378,0.0397,0.0452,0.0484,0.0516,0.0545,0.0586,0.0594,0.0617,0.0561,0.0547,0.044,0.0317,0.0307,0.0193,0.016,0.0064,0.0061,0.0069,0.0067,0.0084,0.0084,0.0085,0.0085,0.0085,0,0.0297,0.0342,0.0396,0.0426,0.0503,0.0526,0.0606,0.0627,0.0669,0.073,0.068,0.0697,0.0558,0.0476,0.0343,0.02,0.021,0.0079,0.0045,0.0099,0.0101,0.0065,0.0064,0.0082,0.0082,0.0083,0.0084,0,0.0315,0.0348,0.0416,0.0485,0.0518,0.0574,0.0675,0.0728,0.0763,0.0837,0.0847,0.0803,0.07,0.0545,0.0372,0.025,0.0102,0.0043,0.0118,0.0087,-0.0021,-0.0017,-0.0069,-0.007,-0.0071,-0.0072,-0.0072,0,0.0328,0.0364,0.0461,0.0512,0.0551,0.064,0.0709,0.0772,0.0835,0.0902,0.0937,0.0872,0.0817,0.0568,0.0386,0.013,0.0086,-0.0002,-0.0015,-0.0005,-0.0034,-0.0029,-0.0024,-0.0074,-0.0074,-0.0074,-0.0075,0,0.0352,0.0387,0.0445,0.0552,0.0634,0.0735,0.0834,0.0887,0.0969,0.0999,0.1021,0.0907,0.0789,0.0581,0.0384,0.0196,0.005,-0.0013,-0.0013,-0.0026,-0.0012,-0.0039,-0.0033,-0.0078,-0.0078,-0.0077,-0.0077,0,0.0373,0.0413,0.0492,0.059,0.0696,0.0804,0.0855,0.0936,0.1003,0.107,0.1071,0.0954,0.0886,0.0614,0.0433,0.0249,0.0189,0.011,0.0102,0.0104,0.0171,0.0215,0.0198,0,0,0,0,0,0.039,0.0439,0.0526,0.0635,0.074,0.081,0.0932,0.0975,0.1051,0.1078,0.1081,0.0975,0.0734,0.0629,0.0444,0.0382,0.0135,0.0153,0.0034,-0.0097,-0.0093,-0.0046,0,0,0,0,0,0,0.0401,0.0477,0.0522,0.0658,0.0738,0.0865,0.0947,0.1,0.1013,0.1058,0.0935,0.0902,0.0662,0.0841,0.0433,0.0379,0.027,0.0049,0.0044,-0.0099,-0.0095,-0.0092,-0.0043,0,0,0,0,0]}]]